Weather History for K2G4 - November, 2012

Change the Weather History Date:

Tuesday, November 13, 2012

  Actual Average (KMGW) Record (KMGW)
Temperature  
Mean Temperature 30 °F 46 °F  
Max Temperature 33 °F 55 °F 74 °F (1955)
Min Temperature 26 °F 37 °F 15 °F (1986)
Degree Days  
Heating Degree Days 36 19  
Month to date heating degree days 224  
Since 1 July heating degree days 666  
Cooling Degree Days 0 0  
Month to date cooling degree days 0  
Year to date cooling degree days 813  
Moisture  
Dew Point 26 °F    
Average Humidity 88    
Maximum Humidity 100    
Minimum Humidity 69    
Precipitation  
Precipitation 0.00 in 0.12 in 0.56 in (1993)
Month to date precipitation 1.44  
Year to date precipitation 36.90  
Sea Level Pressure  
Sea Level Pressure 30.32 in    
Wind  
Wind Speed 9 mph (WNW)    
Max Wind Speed 14 mph    
Max Gust Speed 22 mph    
Visibility 9 miles    
Events Fog    
T = Trace of Precipitation, MM = Missing Value Source: NWS Daily Summary

Daily Weather History Graph

Daily Weather History Graph

Search for Another Location

Airport or City:

Trip Planner

Search our weather history database for the weather conditions in past years. The results will help you decide how hot, cold, wet, or windy it might be!

Date:

Astronomy

Nov. 13, 2012 Rise Set
Actual Time 6:59 AM EST 5:03 PM EST
Civil Twilight 6:31 AM EST 5:31 PM EST
Nautical Twilight 5:58 AM EST 6:04 PM EST
Astronomical Twilight 5:26 AM EST 6:36 PM EST
Moon 6:35 AM EST (11/13) 4:54 PM EST (11/13)
Length of Visible Light 11h 00m
Length of Day
10h 03m
Waning Crescent, 0% of the Moon is Illuminated
Nov 13
Waning Crescent
Nov 13
New
Nov 20
First Quarter
Nov 28
Full
Dec 6
Last Quarter

Hourly Weather History & Observations

Time (EST) Temp. Windchill Dew Point Humidity Pressure Visibility Wind Dir Wind Speed Gust Speed Precip Events Conditions
12:00 AM 33.8 °F 24.8 °F 33.8 °F 100% 30.24 in 5.0 mi West 12.7 mph 21.9 mph N/A   Overcast
12:25 AM 32.0 °F 23.6 °F 32.0 °F 100% 30.24 in 5.0 mi West 10.4 mph 21.9 mph N/A   Overcast
12:45 AM 32.0 °F 22.1 °F 32.0 °F 100% 30.24 in 3.0 mi West 13.8 mph 21.9 mph N/A   Overcast
1:05 AM 32.0 °F 22.5 °F 32.0 °F 100% 30.24 in 10.0 mi West 12.7 mph 18.4 mph N/A   Overcast
1:30 AM 32.0 °F 23.0 °F 32.0 °F 100% 30.23 in 10.0 mi West 11.5 mph 19.6 mph N/A   Overcast
2:10 AM 32.0 °F 23.0 °F 32.0 °F 100% 30.23 in 7.0 mi West 11.5 mph 19.6 mph N/A   Overcast
2:30 AM 32.0 °F 22.5 °F 32.0 °F 100% 30.23 in 5.0 mi West 12.7 mph 21.9 mph N/A   Overcast
2:55 AM 32.0 °F 22.5 °F 32.0 °F 100% 30.23 in 1.2 mi WNW 12.7 mph 19.6 mph N/A   Overcast
3:15 AM 30.2 °F 20.2 °F 30.2 °F 100% 30.25 in 0.5 mi WNW 12.7 mph 21.9 mph N/A Fog Light Freezing Fog
3:55 AM 28.4 °F 19.1 °F 28.4 °F 100% 30.24 in 4.0 mi WNW 10.4 mph 16.1 mph N/A   Overcast
4:20 AM 28.4 °F 19.7 °F 28.4 °F 100% 30.25 in 2.5 mi West 9.2 mph 17.3 mph N/A   Overcast
4:40 AM 28.4 °F 21.2 °F 28.4 °F 100% 30.26 in 1.5 mi West 6.9 mph - N/A   Overcast
5:00 AM 28.4 °F 19.1 °F 28.4 °F 100% 30.26 in 1.5 mi West 10.4 mph 17.3 mph N/A   Overcast
5:20 AM 28.4 °F 18.0 °F 28.4 °F 100% 30.27 in 10.0 mi West 12.7 mph 20.7 mph N/A   Overcast
5:45 AM 26.6 °F 16.8 °F 26.6 °F 100% 30.27 in 10.0 mi West 10.4 mph 16.1 mph N/A   Scattered Clouds
6:05 AM 26.6 °F 17.5 °F 26.6 °F 100% 30.28 in 10.0 mi WNW 9.2 mph - N/A   Scattered Clouds
6:45 AM 26.6 °F 17.5 °F 26.6 °F 100% 30.29 in 10.0 mi WNW 9.2 mph 16.1 mph N/A   Overcast
7:10 AM 26.6 °F 18.2 °F 26.6 °F 100% 30.30 in 10.0 mi West 8.1 mph 16.1 mph N/A   Overcast
7:30 AM 26.6 °F 15.7 °F 26.6 °F 100% 30.31 in 10.0 mi WNW 12.7 mph 18.4 mph N/A   Overcast
7:50 AM 26.6 °F 16.8 °F 26.6 °F 100% 30.32 in 10.0 mi WNW 10.4 mph - N/A   Overcast
8:10 AM 26.6 °F 17.5 °F 26.6 °F 100% 30.33 in 10.0 mi WNW 9.2 mph 18.4 mph N/A   Overcast
8:35 AM 26.6 °F 17.5 °F 26.6 °F 100% 30.33 in 10.0 mi WNW 9.2 mph - N/A   Overcast
8:55 AM 26.6 °F 16.2 °F 26.6 °F 100% 30.33 in 10.0 mi WNW 11.5 mph 20.7 mph N/A   Overcast
9:15 AM 26.6 °F 16.8 °F 24.8 °F 93% 30.34 in 10.0 mi WNW 10.4 mph 19.6 mph N/A   Overcast
9:35 AM 26.6 °F 18.2 °F 24.8 °F 93% 30.34 in 10.0 mi WNW 8.1 mph - N/A   Overcast
10:00 AM 26.6 °F 18.2 °F 24.8 °F 93% 30.35 in 10.0 mi WNW 8.1 mph 16.1 mph N/A   Overcast
10:20 AM 28.4 °F 20.4 °F 26.6 °F 93% 30.35 in 10.0 mi WNW 8.1 mph - N/A   Mostly Cloudy
10:40 AM 28.4 °F 20.4 °F 24.8 °F 86% 30.35 in 10.0 mi West 8.1 mph - N/A   Mostly Cloudy
11:00 AM 28.4 °F 20.4 °F 24.8 °F 86% 30.35 in 10.0 mi West 8.1 mph - N/A   Scattered Clouds
11:25 AM 30.2 °F 23.4 °F 24.8 °F 80% 30.34 in 10.0 mi West 6.9 mph 17.3 mph N/A   Scattered Clouds
11:45 AM 30.2 °F 23.4 °F 24.8 °F 80% 30.33 in 10.0 mi NW 6.9 mph - N/A   Overcast
12:05 PM 30.2 °F 22.6 °F 24.8 °F 80% 30.33 in 10.0 mi WNW 8.1 mph - N/A   Mostly Cloudy
12:25 PM 32.0 °F 23.6 °F 26.6 °F 80% 30.33 in 10.0 mi West 10.4 mph 17.3 mph N/A   Overcast
12:50 PM 30.2 °F 24.3 °F 24.8 °F 80% 30.33 in 10.0 mi NW 5.8 mph - N/A   Overcast
1:10 PM 30.2 °F 23.4 °F 26.6 °F 86% 30.32 in 10.0 mi NW 6.9 mph - N/A   Mostly Cloudy
1:30 PM 30.2 °F 21.9 °F 26.6 °F 86% 30.32 in 10.0 mi WNW 9.2 mph - N/A   Mostly Cloudy
1:50 PM 32.0 °F 26.4 °F 24.8 °F 75% 30.32 in 10.0 mi WNW 5.8 mph - N/A   Mostly Cloudy
2:15 PM 30.2 °F 23.4 °F 24.8 °F 80% 30.32 in 10.0 mi WNW 6.9 mph - N/A   Mostly Cloudy
2:35 PM 30.2 °F 22.6 °F 23.0 °F 75% 30.32 in 10.0 mi NW 8.1 mph - N/A   Mostly Cloudy
2:55 PM 32.0 °F 26.4 °F 24.8 °F 75% 30.32 in 10.0 mi NNW 5.8 mph - N/A   Mostly Cloudy
3:15 PM 32.0 °F 26.4 °F 23.0 °F 69% 30.33 in 10.0 mi NW 5.8 mph - N/A   Overcast
3:40 PM 30.2 °F 24.3 °F 24.8 °F 80% 30.33 in 10.0 mi NW 5.8 mph - N/A   Overcast
4:00 PM 30.2 °F 22.6 °F 23.0 °F 75% 30.33 in 10.0 mi WNW 8.1 mph - N/A   Overcast
4:20 PM 30.2 °F 26.7 °F 24.8 °F 80% 30.34 in 10.0 mi NW 3.5 mph - N/A   Overcast
4:40 PM 30.2 °F 26.7 °F 24.8 °F 80% 30.34 in 10.0 mi NW 3.5 mph - N/A   Overcast
5:05 PM 30.2 °F 25.4 °F 24.8 °F 80% 30.35 in 10.0 mi NW 4.6 mph - N/A   Overcast
5:25 PM 30.2 °F 26.7 °F 24.8 °F 80% 30.35 in 10.0 mi NW 3.5 mph - N/A   Overcast
5:45 PM 28.4 °F 24.6 °F 24.8 °F 86% 30.35 in 10.0 mi NNW 3.5 mph - N/A   Overcast
6:05 PM 28.4 °F 24.6 °F 24.8 °F 86% 30.36 in 10.0 mi NNW 3.5 mph - N/A   Overcast
6:25 PM 28.4 °F 23.3 °F 24.8 °F 86% 30.36 in 10.0 mi NNW 4.6 mph - N/A   Overcast
6:50 PM 28.4 °F 24.6 °F 24.8 °F 86% 30.37 in 10.0 mi NNW 3.5 mph - N/A   Overcast
7:10 PM 28.4 °F 24.6 °F 24.8 °F 86% 30.37 in 10.0 mi NNW 3.5 mph - N/A   Overcast
7:30 PM 28.4 °F 23.3 °F 24.8 °F 86% 30.38 in 10.0 mi NNW 4.6 mph - N/A   Overcast
7:50 PM 28.4 °F - 23.0 °F 80% 30.38 in 10.0 mi Calm Calm - N/A   Overcast
8:15 PM 28.4 °F - 23.0 °F 80% 30.39 in 10.0 mi Calm Calm - N/A   Overcast
8:55 PM 28.4 °F 24.6 °F 23.0 °F 80% 30.40 in 10.0 mi NNW 3.5 mph - N/A   Overcast
9:40 PM 28.4 °F 24.6 °F 23.0 °F 80% 30.40 in 10.0 mi North 3.5 mph - N/A   Overcast
10:00 PM 28.4 °F - 23.0 °F 80% 30.40 in 10.0 mi Calm Calm - N/A   Overcast
10:20 PM 28.4 °F - 21.2 °F 74% 30.40 in 10.0 mi Calm Calm - N/A   Overcast
10:45 PM 28.4 °F - 23.0 °F 80% 30.42 in 10.0 mi Calm Calm - N/A   Overcast
11:05 PM 28.4 °F - 21.2 °F 74% 30.42 in 10.0 mi Calm Calm - N/A   Overcast
11:25 PM 28.4 °F - 19.4 °F 69% 30.41 in 10.0 mi Calm Calm - N/A   Overcast
11:45 PM 26.6 °F - 21.2 °F 80% 30.41 in 10.0 mi Calm Calm - N/A   Overcast